Welcome to our new website - Welkom op onze vernieuwde website - Bienvenue sur notre nouveau site web - Willkommen auf unserer neuen Website
Check our progress frequently. Prüfen Sie unsere Fortschritte regelmäßig. Consultez notre progression fréquemment. Komt u straks nog eens terug
Het weer levert geen direct gevaar op.    Er zijn geen waarschuwingen afgegeven.

Regen radar Meer informatie rain snow radar


Bezoek ook deze websites:

Template documentation
and downloads

And another site


U vindt ons ook hier:

UK Metoffice

WeatherCloud

Weather Underground

AWEKAS


Select another period ( hide this area )

Eenheden Periode Custom range Directly to
Metrisch Engels Beide
Dagelijkse Wekelijkse Maandelijkse Jaarlijkse
use both date-selectors for a custom range
previous Dag
With this date

WeatherUnderground graphs for this period ( click here )


Warning: Division by zero in /customers/a/f/b/meteoassenede.be/httpd.www/weather28/wu/WU-History4.php on line 835
Dagelijkse Samenvatting Woensdag 16 januari 2019
Tijd Temp. ( °C ) Dew pt. ( °C ) Wind ( km/h ) van Windvlaag ( km/h ) Luchtdruk ( hPa ) Humid.( % ) Rainrate ( cm ) Zonneschijn ( W/m2 )
Hoog7,1 6,2 22,7 ZW ( 340/788 ) 33,8 1015,1 95 0,30 0
Gemiddeld6,7 5,7 11,4 ZW #31/69 21,2 1013,5 93 0,60 NAN #0/69
Laag6,5 5,0 4,7   12,9 1011,7 90 -  
Dagelijkse Tabular details for Woensdag 16 januari 2019
Tijd Temp. ( °C ) Dew pt. ( °C ) Wind ( km/h ) van Windvlaag ( km/h ) Luchtdruk ( hPa ) Humid.( % ) Rainrate ( cm ) Zonneschijn ( W/m2 )
00:04 7,1 6,2 7,9 ZW 19,3 1015,1 94 - -
00:09 7,1 6,2 9,7 Zuiden 24,1 1014,8 94 - -
00:14 7,1 6,2 9,7 ZZW 17,7 1014,8 94 - -
00:19 7,1 6,2 4,7 ZZW 14,5 1015,1 94 - -
00:24 7,1 6,2 6,4 ZZW 12,9 1014,8 94 - -
00:29 7,1 6,2 9,7 Zuiden 16,1 1014,8 94 - -
00:34 7,1 6,2 7,9 Zuiden 14,5 1014,8 94 - -
00:39 7,1 6,2 16,3 Zuiden 19,3 1014,8 94 - -
00:44 7,0 6,1 13,0 ZW 14,5 1014,8 94 - -
00:49 6,9 6,2 16,3 ZZW 22,5 1014,4 95 - -
00:54 6,9 6,2 11,1 Zuiden 16,1 1014,4 95 - -
00:59 6,9 6,2 11,1 Zuiden 22,5 1014,4 95 - -
01:04 6,8 6,1 13,0 ZZW 22,5 1014,4 95 - -
01:09 6,8 6,1 11,1 ZW 19,3 1014,4 95 0,30 -
01:14 6,8 6,1 22,7 ZW 22,5 1014,4 95 0,30 -
01:19 6,7 6,0 9,7 ZW 20,9 1014,4 95 0,30 -
01:24 6,7 6,0 11,1 Zuiden 24,1 1014,4 95 0,30 -
01:29 6,7 6,0 6,4 ZW 17,7 1014,4 95 0,30 -
01:34 6,7 6,0 7,9 ZW 16,1 1014,4 95 0,30 -
01:39 6,6 5,9 13,0 ZW 16,1 1014,1 95 0,30 -
01:44 6,6 5,9 11,1 ZZW 19,3 1014,1 95 0,30 -
01:49 6,6 5,9 6,4 ZZW 19,3 1014,1 95 0,30 -
01:54 6,6 5,9 9,7 ZZW 19,3 1014,1 95 0,30 -
01:59 6,6 5,9 17,7 WZW 22,5 1014,1 95 0,30 -
02:04 6,6 5,9 9,7 ZW 17,7 1014,1 95 0,30 -
02:09 6,6 5,9 9,7 WZW 22,5 1013,8 95 - -
02:14 6,6 5,9 11,1 Zuiden 20,9 1013,8 95 - -
02:19 6,6 5,9 16,3 ZZW 19,3 1013,8 95 - -
02:24 6,6 5,9 14,3 ZZW 16,1 1013,8 95 - -
02:29 6,6 5,9 14,3 ZW 20,9 1013,8 95 - -
02:34 6,6 5,9 13,0 WZW 20,9 1013,8 95 - -
02:39 6,7 5,8 11,1 ZZW 17,7 1013,4 94 - -
02:44 6,7 5,8 13,0 ZZW 24,1 1013,4 94 - -
02:49 6,7 5,8 13,0 ZZW 24,1 1013,4 94 - -
02:54 6,7 5,8 13,0 Zuiden 24,1 1013,4 94 - -
02:59 6,7 5,8 16,3 ZW 20,9 1013,4 94 - -
03:04 6,7 5,8 11,1 ZW 22,5 1013,4 94 - -
03:09 6,7 5,8 7,9 ZZW 24,1 1013,4 94 - -
03:14 6,7 5,8 9,7 ZW 32,2 1013,4 94 - -
03:19 6,7 5,8 13,0 ZW 24,1 1013,4 94 - -
03:24 6,7 5,6 16,3 WZW 22,5 1013,1 93 - -
03:29 6,7 5,6 13,0 ZW 22,5 1013,4 93 - -
03:34 6,7 5,6 9,7 ZZW 22,5 1013,1 93 - -
03:39 6,7 5,6 9,7 ZW 22,5 1013,1 93 - -
03:44 6,7 5,6 17,7 Zuiden 17,7 1013,1 93 - -
03:49 6,7 5,5 11,1 ZW 24,1 1013,1 92 - -
03:54 6,7 5,5 11,1 ZW 20,9 1013,1 92 - -
03:59 6,7 5,5 16,3 ZZW 22,5 1012,8 92 - -
04:04 6,7 5,5 9,7 ZW 33,8 1012,8 92 - -
04:09 6,7 5,5 6,4 ZW 16,1 1012,8 92 - -
04:14 6,7 5,5 9,7 ZW 24,1 1012,8 92 - -
04:19 6,7 5,3 17,7 ZZW 27,4 1012,8 91 - -
04:24 6,7 5,3 14,3 ZZW 29,0 1012,8 91 - -
04:29 6,7 5,3 7,9 Zuiden 20,9 1012,8 91 - -
04:34 6,7 5,3 7,9 ZZW 25,7 1012,4 91 - -
04:39 6,7 5,3 11,1 ZW 27,4 1012,4 91 - -
04:44 6,6 5,2 6,4 ZW 24,1 1012,4 91 - -
04:48 6,6 5,2 7,9 ZW 19,3 1012,4 91 - -
04:54 6,6 5,2 9,7 ZW 20,9 1012,4 91 - -
04:58 6,6 5,2 6,4 ZW 27,4 1012,1 91 - -
05:03 6,6 5,2 19,5 Zuiden 24,1 1012,1 91 - -
05:08 6,6 5,1 14,3 ZW 24,1 1012,1 90 - -
05:13 6,6 5,1 17,7 ZW 22,5 1012,1 90 - -
05:19 6,6 5,1 11,1 ZW 25,7 1012,1 90 - -
05:24 6,6 5,1 7,9 ZW 19,3 1012,1 90 - -
05:29 6,6 5,1 11,1 ZW 20,9 1012,1 90 - -
05:34 6,6 5,1 9,7 Zuiden 16,1 1011,7 90 - -
05:39 6,6 5,1 6,4 ZZW 16,1 1011,7 90 - -
05:44 6,5 5,0 9,7 ZZW 16,1 1011,7 90 - -
Dagelijkse Samenvatting Woensdag 16 januari 2019
Tijd Temp. ( °C ) Dew pt. ( °C ) Wind ( km/h ) van Windvlaag ( km/h ) Luchtdruk ( hPa ) Humid.( % ) Rainrate ( cm ) Zonneschijn ( W/m2 )
Hoog7,1 6,2 22,7 ZW ( 340/788 ) 33,8 1015,1 95 0,30 0
Gemiddeld6,7 5,7 11,4 ZW #31/69 21,2 1013,5 93 0,60 NAN #0/69
Laag6,5 5,0 4,7   12,9 1011,7 90 -  
Dagelijkse Tabular details for Woensdag 16 januari 2019
Tijd Temp. ( °C ) Dew pt. ( °C ) Wind ( km/h ) van Windvlaag ( km/h ) Luchtdruk ( hPa ) Humid.( % ) Rainrate ( cm ) Zonneschijn ( W/m2 )
00:04 7,1 6,2 7,9 ZW 19,3 1015,1 94 - -
00:09 7,1 6,2 9,7 Zuiden 24,1 1014,8 94 - -
00:14 7,1 6,2 9,7 ZZW 17,7 1014,8 94 - -
00:19 7,1 6,2 4,7 ZZW 14,5 1015,1 94 - -
00:24 7,1 6,2 6,4 ZZW 12,9 1014,8 94 - -
00:29 7,1 6,2 9,7 Zuiden 16,1 1014,8 94 - -
00:34 7,1 6,2 7,9 Zuiden 14,5 1014,8 94 - -
00:39 7,1 6,2 16,3 Zuiden 19,3 1014,8 94 - -
00:44 7,0 6,1 13,0 ZW 14,5 1014,8 94 - -
00:49 6,9 6,2 16,3 ZZW 22,5 1014,4 95 - -
00:54 6,9 6,2 11,1 Zuiden 16,1 1014,4 95 - -
00:59 6,9 6,2 11,1 Zuiden 22,5 1014,4 95 - -
01:04 6,8 6,1 13,0 ZZW 22,5 1014,4 95 - -
01:09 6,8 6,1 11,1 ZW 19,3 1014,4 95 0,30 -
01:14 6,8 6,1 22,7 ZW 22,5 1014,4 95 0,30 -
01:19 6,7 6,0 9,7 ZW 20,9 1014,4 95 0,30 -
01:24 6,7 6,0 11,1 Zuiden 24,1 1014,4 95 0,30 -
01:29 6,7 6,0 6,4 ZW 17,7 1014,4 95 0,30 -
01:34 6,7 6,0 7,9 ZW 16,1 1014,4 95 0,30 -
01:39 6,6 5,9 13,0 ZW 16,1 1014,1 95 0,30 -
01:44 6,6 5,9 11,1 ZZW 19,3 1014,1 95 0,30 -
01:49 6,6 5,9 6,4 ZZW 19,3 1014,1 95 0,30 -
01:54 6,6 5,9 9,7 ZZW 19,3 1014,1 95 0,30 -
01:59 6,6 5,9 17,7 WZW 22,5 1014,1 95 0,30 -
02:04 6,6 5,9 9,7 ZW 17,7 1014,1 95 0,30 -
02:09 6,6 5,9 9,7 WZW 22,5 1013,8 95 - -
02:14 6,6 5,9 11,1 Zuiden 20,9 1013,8 95 - -
02:19 6,6 5,9 16,3 ZZW 19,3 1013,8 95 - -
02:24 6,6 5,9 14,3 ZZW 16,1 1013,8 95 - -
02:29 6,6 5,9 14,3 ZW 20,9 1013,8 95 - -
02:34 6,6 5,9 13,0 WZW 20,9 1013,8 95 - -
02:39 6,7 5,8 11,1 ZZW 17,7 1013,4 94 - -
02:44 6,7 5,8 13,0 ZZW 24,1 1013,4 94 - -
02:49 6,7 5,8 13,0 ZZW 24,1 1013,4 94 - -
02:54 6,7 5,8 13,0 Zuiden 24,1 1013,4 94 - -
02:59 6,7 5,8 16,3 ZW 20,9 1013,4 94 - -
03:04 6,7 5,8 11,1 ZW 22,5 1013,4 94 - -
03:09 6,7 5,8 7,9 ZZW 24,1 1013,4 94 - -
03:14 6,7 5,8 9,7 ZW 32,2 1013,4 94 - -
03:19 6,7 5,8 13,0 ZW 24,1 1013,4 94 - -
03:24 6,7 5,6 16,3 WZW 22,5 1013,1 93 - -
03:29 6,7 5,6 13,0 ZW 22,5 1013,4 93 - -
03:34 6,7 5,6 9,7 ZZW 22,5 1013,1 93 - -
03:39 6,7 5,6 9,7 ZW 22,5 1013,1 93 - -
03:44 6,7 5,6 17,7 Zuiden 17,7 1013,1 93 - -
03:49 6,7 5,5 11,1 ZW 24,1 1013,1 92 - -
03:54 6,7 5,5 11,1 ZW 20,9 1013,1 92 - -
03:59 6,7 5,5 16,3 ZZW 22,5 1012,8 92 - -
04:04 6,7 5,5 9,7 ZW 33,8 1012,8 92 - -
04:09 6,7 5,5 6,4 ZW 16,1 1012,8 92 - -
04:14 6,7 5,5 9,7 ZW 24,1 1012,8 92 - -
04:19 6,7 5,3 17,7 ZZW 27,4 1012,8 91 - -
04:24 6,7 5,3 14,3 ZZW 29,0 1012,8 91 - -
04:29 6,7 5,3 7,9 Zuiden 20,9 1012,8 91 - -
04:34 6,7 5,3 7,9 ZZW 25,7 1012,4 91 - -
04:39 6,7 5,3 11,1 ZW 27,4 1012,4 91 - -
04:44 6,6 5,2 6,4 ZW 24,1 1012,4 91 - -
04:48 6,6 5,2 7,9 ZW 19,3 1012,4 91 - -
04:54 6,6 5,2 9,7 ZW 20,9 1012,4 91 - -
04:58 6,6 5,2 6,4 ZW 27,4 1012,1 91 - -
05:03 6,6 5,2 19,5 Zuiden 24,1 1012,1 91 - -
05:08 6,6 5,1 14,3 ZW 24,1 1012,1 90 - -
05:13 6,6 5,1 17,7 ZW 22,5 1012,1 90 - -
05:19 6,6 5,1 11,1 ZW 25,7 1012,1 90 - -
05:24 6,6 5,1 7,9 ZW 19,3 1012,1 90 - -
05:29 6,6 5,1 11,1 ZW 20,9 1012,1 90 - -
05:34 6,6 5,1 9,7 Zuiden 16,1 1011,7 90 - -
05:39 6,6 5,1 6,4 ZZW 16,1 1011,7 90 - -
05:44 6,5 5,0 9,7 ZZW 16,1 1011,7 90 - -

Download your copy of this data-set  here

Our weather-data as stored at Weather Underground. Script ontwikkeld door Jim McMurry. Aangepast voor de template door Leuven-Template.eu

Apparatuur in gebruik:

Weerstation
Davis Vantage Pro2

Weerprogramma
Meteobridge

Weercomputer
TP-Link TL-MR3020

Webleverancier
One.com

Davis Vantage Pro2

Meteobridge

TP-Link TL-MR3020

One.com